View from above orbital plane
|
View from above satellite
|
Ground track
|
The orbit data is extracted from the following two-line orbital elements,
1 13007U 81119B 21019.90610059 .00005120 00000-0 23736-3 0 9996
2 13007 23.5424 173.7660 3034562 301.6794 32.2470 9.28199510996934
Epoch (UTC): | 19 January 2021 21:44:47 |
Eccentricity: | 0.3034562 |
inclination: | 23.5424° |
perigee height: | 283 km |
apogee height: | 6088 km |
right ascension of ascending node: | 173.7660° |
argument of perigee: | 301.6794° |
revolutions per day: | 9.28199510 |
mean anomaly at epoch: | 32.2470° |
orbit number at epoch: | 99693 |
The dashed part of the orbit path shows where the satellite is in the earth's shadow,
|
|